Location: Coupvray
(48.8929°N, 2.7967°E)
Time: 03:44:45
(UTC+00:00)

NOSS 2-1 (C) - Pass Details

Date: 14 July 2020
Orbit: 443 x 1759 km, 63.3° (Epoch: 29 July)

Event Time Altitude Azimuth Distance (km) Brightness Sun altitude
Rises 00:24:34 0° 318° (NW) 2,961 7.7 -19.2°
Reaches altitude 10° 00:26:33 10° 319° (NW) 2,183 6.9 -19.1°
Maximum altitude 00:31:33 84° 47° (NE) 892 4.3 -19.0°
Drops below altitude 10° 00:38:39 10° 138° (SE) 3,048 6.7 -18.8°
Enters shadow 00:39:09 - 138° (SE) 3,231 6.9 -18.8°
